Location: Unspecified
(58.9933°N, 5.6375°E)
Time: 20:12:21
(UTC+02:00)

Resurs 1-4 Rocket - Visible Passes

Search period start: 30 July 2015 00:00
Search period end: 09 August 2015 00:00
Orbit: 800 x 815 km, 98.4° (Epoch: 30 July)

Date Brightness Start Highest point End Pass type
(mag) Time Alt. Az. Time Alt. Az. Time Alt. Az.
30 Jul 3.8 04:19:13 10° NNE 04:23:50 30° E 04:28:28 10° SSE visible
31 Jul 4.3 03:55:04 10° NE 03:59:00 21° E 04:03:01 10° SE visible
01 Aug 4.6 03:31:14 10° NE 03:34:04 15° E 03:37:05 10° ESE visible
03 Aug 3.8 04:21:06 10° NNE 04:25:45 31° E 04:30:25 10° SSE visible
04 Aug 4.3 03:56:55 10° NE 04:00:55 22° E 04:05:01 10° SE visible
05 Aug 4.6 03:33:02 10° NE 03:36:00 15° E 03:39:08 10° ESE visible
06 Aug 4.9 03:10:27 10° ENE 03:10:59 10° ENE 03:11:47 10° E visible
07 Aug 3.7 04:22:58 10° NNE 04:27:39 32° E 04:32:22 10° SSE visible
08 Aug 4.2 03:58:45 10° NE 04:02:50 23° E 04:07:00 10° SE visible
